| time (UTC) | temp C | wind direction | speed KPH | gust KPH | rain 1hr cm | rain 24hr cm | rain mn cm | humidity % | barometer mb |
| 20260903163710 | 30 | 178 | 14.5 | 24.1 | 0.00 | 0.00 | 0.00 | 61 | 1006.7 |
| 20260903161710 | 30 | 178 | 12.9 | 29.0 | 0.00 | 0.00 | 0.00 | 63 | 1006.7 |
| 20260903160711 | 29 | 180 | 12.9 | 19.3 | 0.00 | 0.00 | 0.00 | 61 | 1006.6 |
| 20260903155711 | 29 | 222 | 14.5 | 22.5 | 0.00 | 0.00 | 0.00 | 62 | 1006.4 |
| 20260903154711 | 29 | 173 | 11.3 | 20.9 | 0.00 | 0.00 | 0.00 | 63 | 1006.3 |
| 20260903153710 | 28 | 176 | 14.5 | 29.0 | 0.00 | 0.00 | 0.00 | 64 | 1006.3 |
| 20260903152710 | 28 | 194 | 16.1 | 27.4 | 0.00 | 0.00 | 0.00 | 64 | 1006.5 |
| 20260903150711 | 27 | 208 | 14.5 | 25.7 | 0.00 | 0.00 | 0.00 | 67 | 1006.3 |
| 20260903145710 | 27 | 229 | 16.1 | 25.7 | 0.00 | 0.00 | 0.00 | 67 | 1006.5 |
| 20260903142711 | 26 | 207 | 9.7 | 19.3 | 0.00 | 0.00 | 0.00 | 72 | 1007.1 |
| 20260903140711 | 25 | 205 | 4.8 | 11.3 | 0.00 | 0.00 | 0.00 | 75 | 1007.2 |
| 20260903135711 | 24 | 194 | 8.0 | 16.1 | 0.00 | 0.00 | 0.00 | 74 | 1006.9 |
| 20260903134710 | 25 | 194 | 9.7 | 12.9 | 0.00 | 0.00 | 0.00 | 74 | 1007.0 |
| 20260903133710 | 25 | 213 | 9.7 | 12.9 | 0.00 | 0.00 | 0.00 | 73 | 1007.0 |
| 20260903132710 | 24 | 234 | 8.0 | 12.9 | 0.00 | 0.00 | 0.00 | 74 | 1007.3 |
| 20260903131710 | 24 | 190 | 6.4 | 16.1 | 0.00 | 0.00 | 0.00 | 76 | 1007.2 |
| 20260903130710 | 23 | 204 | 9.7 | 14.5 | 0.00 | 0.00 | 0.00 | 76 | 1007.0 |
| 20260903125710 | 23 | 243 | 3.2 | 4.8 | 0.00 | 0.00 | 0.00 | 75 | 1007.0 |
| 20260903124711 | 23 | 267 | 3.2 | 4.8 | 0.00 | 0.00 | 0.00 | 74 | 1006.9 |
| 20260903123712 | 23 | 220 | 1.6 | 4.8 | 0.00 | 0.00 | 0.00 | 73 | 1006.5 |
| 20260903121711 | 24 | 186 | 3.2 | 11.3 | 0.00 | 0.00 | 0.00 | 72 | 1005.9 |
| 20260903115711 | 24 | 206 | 4.8 | 14.5 | 0.00 | 0.00 | 0.00 | 71 | 1005.7 |
| 20260903114710 | 25 | 180 | 8.0 | 16.1 | 0.00 | 0.00 | 0.00 | 70 | 1005.6 |
| 20260903113710 | 25 | 180 | 8.0 | 19.3 | 0.00 | 0.00 | 0.00 | 70 | 1005.6 |
| 20260903112711 | 25 | 174 | 11.3 | 20.9 | 0.00 | 0.00 | 0.00 | 69 | 1005.6 |
| 20260903111710 | 25 | 185 | 12.9 | 27.4 | 0.00 | 0.00 | 0.00 | 69 | 1005.4 |
| 20260903110711 | 25 | 191 | 14.5 | 25.7 | 0.00 | 0.00 | 0.00 | 68 | 1005.5 |
| 20260903105710 | 25 | 157 | 14.5 | 25.7 | 0.00 | 0.15 | 0.00 | 68 | 1005.5 |
| 20260903104711 | 25 | 182 | 14.5 | 25.7 | 0.00 | 0.15 | 0.00 | 67 | 1005.4 |
| 20260903103711 | 25 | 195 | 12.9 | 27.4 | 0.00 | 0.15 | 0.00 | 67 | 1005.4 |
| 20260903102710 | 25 | 168 | 14.5 | 24.1 | 0.00 | 0.15 | 0.00 | 67 | 1005.4 |
| 20260903101711 | 26 | 188 | 16.1 | 32.2 | 0.00 | 0.15 | 0.00 | 66 | 1005.3 |
| 20260903100710 | 26 | 196 | 12.9 | 22.5 | 0.00 | 0.15 | 0.00 | 66 | 1005.3 |
| 20260903095710 | 26 | 207 | 14.5 | 25.7 | 0.00 | 0.15 | 0.00 | 65 | 1005.4 |
| 20260903091711 | 26 | 175 | 16.1 | 33.8 | 0.00 | 0.15 | 0.00 | 64 | 1005.4 |
| 20260903090711 | 26 | 169 | 16.1 | 37.0 | 0.00 | 0.15 | 0.00 | 63 | 1005.5 |
| 20260903085710 | 26 | 224 | 14.5 | 32.2 | 0.00 | 0.15 | 0.00 | 63 | 1005.6 |
| 20260903084710 | 26 | 199 | 16.1 | 32.2 | 0.00 | 0.15 | 0.00 | 63 | 1005.7 |
| 20260903082710 | 26 | 155 | 19.3 | 32.2 | 0.00 | 0.15 | 0.00 | 63 | 1005.9 |
| 20260903081711 | 26 | 202 | 16.1 | 29.0 | 0.00 | 0.15 | 0.00 | 63 | 1005.8 |
| 20260903080711 | 26 | 192 | 16.1 | 32.2 | 0.00 | 0.15 | 0.00 | 63 | 1005.9 |
| 20260903075711 | 26 | 164 | 14.5 | 27.4 | 0.00 | 0.15 | 0.00 | 63 | 1006.0 |
| 20260903074711 | 26 | 200 | 16.1 | 32.2 | 0.00 | 0.15 | 0.00 | 63 | 1006.0 |
| 20260903073710 | 26 | 163 | 16.1 | 27.4 | 0.00 | 0.15 | 0.00 | 63 | 1006.2 |
| 20260903072711 | 26 | 176 | 14.5 | 24.1 | 0.00 | 0.15 | 0.00 | 63 | 1006.1 |
| 20260903071710 | 26 | 187 | 16.1 | 25.7 | 0.00 | 0.15 | 0.00 | 63 | 1006.1 |
| 20260903070711 | 27 | 192 | 14.5 | 24.1 | 0.00 | 0.15 | 0.00 | 62 | 1006.3 |
| 20260903065710 | 27 | 177 | 16.1 | 27.4 | 0.00 | 0.15 | 0.00 | 62 | 1006.1 |
| 20260903064711 | 27 | 202 | 19.3 | 29.0 | 0.00 | 0.15 | 0.00 | 62 | 1006.2 |
| 20260903063711 | 27 | 188 | 16.1 | 25.7 | 0.00 | 0.15 | 0.00 | 62 | 1006.3 |
| 20260903062711 | 27 | 171 | 14.5 | 32.2 | 0.00 | 0.15 | 0.00 | 62 | 1006.2 |
| 20260903061710 | 27 | 197 | 17.7 | 32.2 | 0.00 | 0.15 | 0.00 | 61 | 1006.3 |
| 20260903060710 | 27 | 172 | 16.1 | 24.1 | 0.00 | 0.15 | 0.00 | 61 | 1006.2 |
| 20260903052711 | 27 | 175 | 19.3 | 32.2 | 0.00 | 0.15 | 0.00 | 60 | 1006.3 |
| 20260903051711 | 28 | 190 | 16.1 | 33.8 | 0.00 | 0.15 | 0.00 | 59 | 1006.2 |
| 20260903050711 | 28 | 168 | 17.7 | 29.0 | 0.00 | 0.15 | 0.00 | 59 | 1006.2 |
| 20260903045711 | 28 | 169 | 16.1 | 32.2 | 0.00 | 0.15 | 0.15 | 59 | 1006.2 |
| 20260903044711 | 28 | 177 | 17.7 | 32.2 | 0.00 | 0.15 | 0.15 | 59 | 1006.0 |
| 20260903043711 | 28 | 176 | 16.1 | 32.2 | 0.00 | 0.15 | 0.15 | 59 | 1006.2 |
| 20260903042710 | 28 | 148 | 19.3 | 33.8 | 0.00 | 0.15 | 0.15 | 58 | 1006.2 |
| 20260903040710 | 28 | 174 | 20.9 | 38.6 | 0.00 | 0.15 | 0.15 | 57 | 1006.2 |
| 20260903035710 | 29 | 196 | 19.3 | 33.8 | 0.00 | 0.15 | 0.15 | 56 | 1006.0 |
| 20260903034711 | 29 | 196 | 20.9 | 38.6 | 0.00 | 0.15 | 0.15 | 56 | 1006.1 |
| 20260903033710 | 29 | 171 | 20.9 | 35.4 | 0.00 | 0.15 | 0.15 | 56 | 1006.1 |
| 20260903031711 | 29 | 184 | 22.5 | 35.4 | 0.00 | 0.15 | 0.15 | 56 | 1006.1 |
| 20260903030710 | 29 | 169 | 20.9 | 40.2 | 0.00 | 0.15 | 0.15 | 56 | 1006.0 |
| 20260903025710 | 29 | 180 | 20.9 | 32.2 | 0.00 | 0.15 | 0.15 | 57 | 1005.9 |
| 20260903023711 | 29 | 159 | 16.1 | 29.0 | 0.00 | 0.15 | 0.15 | 58 | 1005.8 |
| 20260903022711 | 29 | 168 | 16.1 | 24.1 | 0.00 | 0.15 | 0.15 | 59 | 1005.8 |
| 20260903021711 | 29 | 184 | 14.5 | 22.5 | 0.00 | 0.15 | 0.15 | 60 | 1005.7 |
| 20260903020711 | 30 | 175 | 11.3 | 20.9 | 0.00 | 0.15 | 0.15 | 60 | 1005.6 |
| 20260903015711 | 30 | 166 | 14.5 | 20.9 | 0.00 | 0.15 | 0.15 | 60 | 1005.6 |
| 20260903013711 | 30 | 159 | 11.3 | 20.9 | 0.00 | 0.15 | 0.15 | 62 | 1005.3 |
| 20260903012712 | 30 | 158 | 11.3 | 19.3 | 0.00 | 0.15 | 0.15 | 63 | 1005.5 |
| 20260903011711 | 31 | 163 | 9.7 | 19.3 | 0.00 | 0.15 | 0.15 | 63 | 1005.4 |
| 20260903010710 | 31 | 113 | 8.0 | 16.1 | 0.00 | 0.15 | 0.15 | 64 | 1005.3 |
| 20260903005711 | 31 | 121 | 4.8 | 12.9 | 0.00 | 0.15 | 0.15 | 64 | 1005.4 |
| 20260903004710 | 32 | 119 | 6.4 | 14.5 | 0.00 | 0.15 | 0.15 | 62 | 1005.3 |
| 20260903003711 | 32 | 130 | 8.0 | 16.1 | 0.00 | 0.15 | 0.15 | 61 | 1005.3 |
| 20260903002711 | 32 | 133 | 9.7 | 14.5 | 0.00 | 0.15 | 0.15 | 60 | 1005.3 |
| 20260903001711 | 32 | 117 | 8.0 | 12.9 | 0.00 | 0.15 | 0.15 | 58 | 1005.2 |
| 20260903000710 | 32 | 115 | 6.4 | 12.9 | 0.00 | 0.15 | 0.15 | 57 | 1005.3 |
| 20260902235710 | 33 | 148 | 9.7 | 14.5 | 0.00 | 0.15 | 0.15 | 56 | 1005.5 |
| 20260902234710 | 33 | 101 | 6.4 | 14.5 | 0.00 | 0.15 | 0.15 | 57 | 1005.6 |
| 20260902233711 | 33 | 155 | 6.4 | 11.3 | 0.00 | 0.15 | 0.15 | 56 | 1005.6 |
| 20260902232711 | 33 | 139 | 4.8 | 9.7 | 0.00 | 0.15 | 0.15 | 56 | 1005.6 |
| 20260902231710 | 33 | 161 | 6.4 | 11.3 | 0.00 | 0.15 | 0.15 | 56 | 1005.8 |
| 20260902230710 | 33 | 157 | 4.8 | 8.0 | 0.00 | 0.15 | 0.15 | 56 | 1005.9 |
| 20260902225710 | 33 | 166 | 4.8 | 8.0 | 0.00 | 0.15 | 0.15 | 55 | 1005.9 |
| 20260902224710 | 33 | 175 | 3.2 | 11.3 | 0.00 | 0.15 | 0.15 | 55 | 1006.1 |
| 20260902223711 | 33 | 176 | 8.0 | 12.9 | 0.00 | 0.15 | 0.15 | 55 | 1006.2 |
| 20260902222711 | 33 | 150 | 8.0 | 19.3 | 0.00 | 0.15 | 0.15 | 54 | 1006.3 |
| 20260902221711 | 33 | 178 | 6.4 | 16.1 | 0.00 | 0.15 | 0.15 | 54 | 1006.5 |
| 20260902220711 | 33 | 166 | 9.7 | 14.5 | 0.00 | 0.15 | 0.15 | 54 | 1006.5 |
| 20260902195710 | 33 | 163 | 14.5 | 27.4 | 0.00 | 0.15 | 0.15 | 55 | 1007.7 |
| 20260902193710 | 33 | 215 | 12.9 | 25.7 | 0.00 | 0.15 | 0.15 | 53 | 1007.6 |
| 20260902191710 | 33 | 187 | 8.0 | 19.3 | 0.00 | 0.15 | 0.15 | 56 | 1007.6 |
| 20260902190712 | 32 | 214 | 16.1 | 19.3 | 0.00 | 0.15 | 0.15 | 54 | 1007.7 |
| 20260902175711 | 32 | 182 | 16.1 | 22.5 | 0.00 | 0.15 | 0.15 | 56 | 1008.2 |
| 20260902174711 | 32 | 202 | 11.3 | 22.5 | 0.00 | 0.15 | 0.15 | 57 | 1008.3 |
| 20260902171710 | 31 | 204 | 12.9 | 22.5 | 0.00 | 0.15 | 0.15 | 59 | 1008.3 |
| 20260902170710 | 30 | 184 | 16.1 | 22.5 | 0.00 | 0.15 | 0.15 | 59 | 1008.2 |
| 20260902165710 | 30 | 221 | 8.0 | 14.5 | 0.00 | 0.15 | 0.15 | 62 | 1008.4 |
| 20260902164710 | 30 | 205 | 9.7 | 14.5 | 0.00 | 0.15 | 0.15 | 62 | 1008.3 |